GALAXY 17 (G-17)

Last updated on Tue Oct 08 2024 00:02:38 GMT+0000 (Coordinated Universal Time)

1 31307U 07016B 24281.31168743 -.00000194 00000+0 00000+0 0 9991 2 31307 1.3962 87.7849 0004294 128.4717 187.4298 1.00271637 63600
UTC large
Height (km)
Speed (km/s)
/
Latitude / Longitude
Inclination (degrees)
Orbital Period (minutes)
Azimuth
Elevation
Range (km)
Doppler Factor

Next 0 passes for location: London (51.5072 / 0.1276)

Sorry there are no passes over London.